Theta_e
309 308 308 308 307 307 307 307 307 307 308 310 308 307 308 309 310 311 312 313 314 314 314 314 314 314 314 314 316 319 321 322 327 331 333 333 333 331 331 331 330 327 327 328
307 307 307 307 304 306 307 308 308 308 309 309 308 308 307 307 309 312 313 313 313 314 314 314 313 313 313 313 314 314 316 318 321 324 327 331 332 332 331 332 331 330 327 328
306 307 306 306 306 307 306 306 307 308 307 305 304 305 306 306 306 309 311 312 312 312 313 313 312 312 312 311 312 313 314 314 316 319 324 329 332 331 332 331 332 331 331 330
306 305 305 306 306 306 307 305 306 307 308 307 305 307 305 305 304 305 310 310 310 310 311 312 312 312 313 314 313 314 312 313 314 317 322 323 325 328 327 330 330 329 331 331
305 305 305 306 306 305 307 304 306 307 306 307 307 308 305 304 307 307 307 308 309 313 314 314 314 313 312 312 312 313 313 312 313 314 318 321 324 326 328 326 334 329 333 330
305 306 305 305 304 305 304 305 305 304 305 308 305 306 304 305 306 307 307 309 309 313 314 314 313 313 314 314 313 314 313 312 312 313 313 317 320 325 328 330 331 329 332 331
308 308 307 307 306 306 306 306 308 309 308 308 304 305 306 305 303 304 305 307 311 313 314 314 315 315 315 315 316 316 315 313 312 311 312 314 320 324 325 328 331 331 331 331
306 308 307 306 306 307 305 306 308 308 309 307 305 307 307 304 305 307 309 310 313 312 313 314 315 315 315 315 316 316 315 314 313 313 313 314 317 320 323 325 329 326 327 327
306 307 308 307 306 308 308 308 305 305 295 306 305 305 305 305 305 308 309 311 312 313 313 314 314 314 314 314 314 315 316 316 316 315 316 318 320 324 328 328 327 327 326 325
307 308 308 308 308 309 307 306 308 305 304 306 305 305 308 307 308 309 309 310 311 311 312 312 313 313 313 312 313 313 313 314 316 320 322 324 324 324 324 324 323 323 322 322
306 308 310 308 308 308 307 307 306 306 306 307 305 306 302 306 305 307 308 310 311 312 312 312 312 313 313 313 312 312 312 312 313 313 314 314 314 315 315 315 315 313 312 311
307 308 310 309 307 308 308 307 307 309 307 305 306 308 306 303 306 309 309 311 311 311 311 312 312 312 312 312 312 311 311 312 312 312 312 312 312 312 312 312 311 311 311 311
308 308 304 307 307 308 309 307 306 306 306 308 308 310 305 305 306 309 310 311 312 312 312 312 312 311 311 311 311 311 311 311 311 311 311 311 312 312 312 312 311 311 311 311
310 309 309 310 309 309 311 308 307 309 309 310 308 309 309 307 307 308 311 312 312 311 311 311 311 310 310 310 310 311 311 311 311 311 311 312 312 312 312 312 311 311 310 310
310 310 308 308 308 308 308 309 309 310 310 310 310 308 306 307 307 310 312 311 311 310 310 310 310 309 309 310 310 310 310 310 310 311 312 312 312 312 311 311 310 309 309 308
311 312 309 308 309 311 312 309 308 309 310 310 309 308 304 308 308 309 311 311 310 309 309 308 308 308 308 308 309 309 309 309 310 311 311 312 311 309 308 307 308 307 307 307
311 310 313 315 310 311 314 312 310 309 308 308 310 310 307 307 307 309 311 310 310 309 308 308 308 308 309 309 309 309 308 308 307 306 306 307 306 306 306 307 307 307 307 306
307 309 310 312 313 316 311 304 310 310 310 309 309 307 307 308 309 310 311 311 310 309 309 308 308 307 306 306 306 305 305 304 304 304 304 304 304 304 304 304 305 305 304 304
308 309 312 313 314 307 309 305 308 310 311 310 309 306 307 307 306 304 309 310 310 307 305 304 304 304 304 304 304 304 304 303 303 302 302 303 303 303 303 303 303 302 302 302
306 308 311 306 312 309 303 300 305 306 312 303 309 308 302 303 308 303 305 305 304 303 303 302 302 302 302 302 302 302 301 300 300 300 300 301 301 301 300 300 300 300 300 301
310 310 313 309 305 302 300 301 306 307 307 302 306 308 303 304 307 307 303 301 300 300 299 300 300 300 300 300 300 299 299 299 299 299 299 299 299 299 299 298 298 298 297 297
309 311 311 308 309 311 299 303 306 304 301 303 306 308 305 305 305 303 301 300 298 298 298 299 300 299 299 298 297 297 298 298 298 298 298 297 297 296 296 295 296 297 297 297
305 304 306 307 307 300 302 303 305 304 304 305 306 306 306 304 301 300 299 298 298 298 298 297 297 296 296 296 297 297 297 296 296 296 295 295 295 295 295 295 295 295 296 296
293 295 299 301 300 298 300 302 302 305 304 305 306 305 305 303 299 297 295 295 295 295 295 295 295 295 296 296 295 295 295 295 295 296 296 296 296 296 296 295 294 294 294 295
296 295 293 295 297 298 300 301 304 303 303 304 304 304 303 301 295 295 295 295 295 295 295 295 295 295 295 295 295 295 295 295 295 295 295 294 293 293 294 294 294 294 294 294
294 295 299 300 300 302 303 304 302 302 303 302 303 298 295 295 295 295 295 295 294 294 293 293 293 293 293 293 292 292 292 291 291 291 291 291 291 292 292 293 293 293 293 293
Wind_Speed
2 4 6 7 5 3 5 3 5 2 2 2 5 7 14 17 15 21 24 22 21 21 17 18 19 19 23 28 32 35 36 36 38 39 40 39 37 35 32 32 29 25 26 27
5 5 8 7 8 5 4 4 2 1 2 3 4 10 12 12 14 23 25 26 24 24 25 22 22 21 25 27 30 34 37 37 37 39 39 40 38 39 35 32 33 32 29 31
7 3 12 8 5 7 4 6 4 4 1 2 4 7 7 4 7 15 22 29 30 28 29 30 25 21 25 30 31 34 36 37 37 37 38 40 39 40 37 37 35 34 34 34
3 3 7 5 5 5 5 7 5 4 3 3 2 5 5 6 9 7 23 21 18 16 17 21 22 21 21 19 21 26 35 37 37 38 40 40 40 39 38 38 34 32 31 31
6 9 7 5 6 7 6 6 7 3 4 2 2 1 6 2 6 10 6 6 3 4 6 9 14 15 14 18 23 22 25 34 35 36 39 39 39 37 35 32 33 32 32 31
3 3 5 7 4 4 10 7 7 4 3 2 6 6 4 5 7 3 3 5 2 4 2 3 2 3 6 9 12 14 15 24 29 30 32 37 38 36 36 34 32 29 29 29
1 2 3 5 7 5 3 7 2 1 1 5 3 2 7 7 8 5 5 8 4 2 1 3 4 2 2 3 6 9 12 18 23 26 28 30 33 33 33 31 29 28 27 27
8 4 8 4 7 9 7 7 6 8 4 3 2 7 7 6 7 9 8 7 4 4 2 1 2 2 1 1 1 3 6 10 13 18 21 23 25 26 26 24 23 23 23 22
6 5 0 2 5 10 5 6 4 7 3 3 5 7 9 9 7 5 7 6 6 5 5 4 3 3 3 2 1 1 1 3 7 10 13 15 17 18 18 16 15 16 16 20
7 4 1 3 5 1 7 9 4 2 4 4 5 5 8 1 6 6 6 3 4 5 7 6 5 4 3 2 2 2 4 5 7 9 11 12 12 13 13 13 14 16 20 24
6 4 1 4 7 10 3 4 3 5 5 6 2 7 7 10 7 8 6 7 7 6 5 3 2 2 2 3 4 4 5 6 6 7 9 10 10 9 9 9 10 11 11 14
7 5 4 8 2 2 3 7 7 6 6 2 3 9 3 5 7 12 11 10 10 9 8 6 3 1 2 2 3 5 5 5 6 8 9 10 10 9 7 5 6 7 9 12
9 3 3 5 3 2 4 3 4 5 3 7 6 12 1 5 7 12 12 10 8 7 5 4 3 4 6 8 9 10 12 12 12 11 10 8 7 5 4 5 8 10 12 14
17 4 12 14 5 7 6 7 7 9 3 11 11 14 1 5 7 10 13 11 8 8 6 6 6 7 9 11 12 12 11 10 8 7 6 4 2 3 6 9 12 14 16 17
6 8 6 3 5 4 6 9 14 16 21 10 29 15 10 12 13 24 20 15 12 10 8 8 8 9 11 12 13 11 9 7 5 2 2 3 6 9 13 14 16 17 18 17
2 2 3 3 6 5 2 6 14 23 21 20 13 19 8 20 14 13 18 14 12 10 10 11 11 11 11 10 10 8 5 4 2 2 5 8 11 13 13 12 14 15 16 16
6 5 4 8 8 5 6 25 11 6 6 10 16 19 6 5 12 24 26 15 13 14 14 12 12 11 9 8 6 5 3 1 1 2 3 5 7 8 10 10 10 10 12 13
6 7 4 3 7 9 7 3 18 20 15 14 10 4 7 10 20 23 28 22 19 18 16 15 13 12 10 10 8 7 6 4 4 4 5 6 8 10 11 11 12 13 14 15
6 3 3 4 3 4 4 4 7 10 18 22 17 8 10 11 10 6 17 20 20 19 17 15 14 13 11 10 8 6 5 2 1 4 7 9 10 11 13 15 16 18 19 20
3 4 3 2 4 7 6 2 3 6 11 7 23 18 13 18 7 5 21 22 22 20 17 15 13 11 10 8 6 4 2 2 5 7 9 10 11 13 14 15 17 18 19 21
6 3 9 5 3 7 5 5 9 6 5 3 6 15 20 8 7 13 27 24 20 18 15 13 11 10 8 6 4 2 3 5 6 7 7 8 9 11 14 16 18 19 21 21
10 9 7 2 3 9 12 7 9 5 3 2 5 16 24 18 15 29 26 23 19 17 16 13 11 8 6 4 3 4 6 6 7 8 9 11 13 15 17 19 21 21 21 21
3 6 5 7 6 2 23 3 14 6 4 6 8 13 20 22 29 28 26 22 19 16 15 12 9 7 4 4 5 7 8 8 8 9 11 13 16 18 21 23 24 23 24 24
3 3 3 3 4 4 12 14 7 14 9 10 12 17 25 30 30 28 26 24 22 19 14 10 7 5 5 6 8 9 9 10 11 14 16 18 20 22 25 26 26 26 26 27
3 7 5 5 1 2 10 19 22 14 13 14 17 24 30 31 30 28 26 23 19 15 12 9 7 7 8 10 11 13 14 16 18 20 22 24 25 27 27 28 29 29 28 29
7 6 5 5 11 8 9 18 20 21 21 22 26 28 27 27 28 24 21 18 15 11 8 6 7 7 8 11 13 15 17 19 20 21 23 24 26 26 27 28 29 27 30 30
Wind_Direction
127 109 174 176 187 120 137 137 169 215 25 194 237 262 275 277 275 276 272 266 260 256 256 247 247 242 241 240 239 239 238 238 236 235 236 239 237 240 238 238 238 240 244 247
53 203 200 146 142 128 134 136 218 58 45 197 339 286 272 263 255 261 267 269 260 258 260 260 258 252 250 248 244 240 240 238 237 237 238 239 242 243 247 246 243 241 245 247
158 214 160 137 149 142 152 158 174 184 182 70 338 287 280 305 271 268 260 261 265 267 269 270 273 265 258 247 245 243 241 240 238 238 237 238 238 244 246 248 247 244 246 248
204 101 138 121 163 129 184 200 154 141 108 233 359 280 302 278 293 277 271 270 279 283 276 274 271 259 249 241 245 245 240 238 237 236 236 236 237 236 243 246 250 255 253 254
227 159 150 159 192 160 210 125 142 118 111 55 329 342 263 287 279 264 269 281 257 299 296 288 264 249 248 248 238 247 242 233 234 236 237 240 238 241 245 247 249 254 255 262
169 189 155 172 74 135 150 85 53 57 97 285 204 178 249 199 213 258 155 142 347 349 352 12 8 238 246 248 240 245 241 233 234 236 237 239 241 238 241 246 250 254 256 262
105 201 174 136 87 34 73 108 44 7 360 230 333 170 245 250 232 226 252 294 309 308 55 83 87 85 157 218 231 238 239 233 231 231 232 232 234 236 242 248 251 254 261 264
159 230 168 181 168 166 193 161 160 190 194 229 61 232 255 243 268 268 275 280 276 215 206 152 99 112 135 151 217 235 224 221 226 230 230 228 230 235 243 249 250 258 259 263
154 241 96 140 153 147 203 214 156 103 21 62 219 284 288 260 266 252 237 230 240 216 207 218 220 229 239 243 260 281 222 191 193 194 199 206 217 225 233 241 246 253 257 259
201 123 358 168 114 34 167 153 84 5 138 229 261 269 230 161 201 204 205 193 196 182 182 187 193 206 217 239 239 220 211 201 191 188 193 199 207 218 223 228 238 247 255 261
147 109 357 127 216 167 149 177 93 130 160 177 233 254 215 208 194 189 181 154 145 153 155 164 168 211 241 265 262 246 222 207 199 193 193 196 198 207 213 220 233 243 255 263
179 125 152 201 290 346 354 185 158 172 214 234 150 258 173 201 187 165 160 150 135 125 119 107 105 195 216 210 214 207 192 172 164 160 157 158 154 155 163 187 229 254 269 277
174 201 82 357 342 358 208 199 138 102 83 195 149 260 341 121 150 172 168 168 154 136 130 127 127 129 136 141 143 144 143 139 137 137 140 147 148 164 209 249 267 276 280 279
161 135 204 210 184 139 189 193 189 193 169 224 226 240 209 208 203 212 202 195 188 182 175 163 152 150 146 142 140 141 141 143 146 151 156 163 192 247 274 281 283 285 288 290
144 203 193 171 133 129 188 185 197 204 221 190 244 232 198 202 200 210 201 200 195 190 186 178 169 164 164 161 155 158 162 167 171 208 274 282 295 297 297 296 294 293 290 286
60 177 121 273 154 148 185 224 209 214 226 237 259 259 165 207 200 196 201 199 201 195 186 176 173 171 170 173 169 171 171 179 201 269 283 293 299 304 301 302 301 300 300 303
142 134 140 230 165 108 264 223 202 199 201 209 228 244 162 179 195 209 210 210 208 197 188 177 168 166 162 158 155 156 161 166 310 328 342 344 342 330 321 319 315 319 320 318
152 152 158 161 138 208 256 38 222 219 229 217 252 167 185 204 219 228 221 208 197 193 188 182 175 165 153 144 138 128 111 85 49 9 354 336 325 320 320 318 315 312 315 318
147 147 143 168 197 300 250 204 161 177 243 233 236 202 187 181 182 208 202 210 202 185 173 163 156 153 152 150 150 149 148 161 273 313 314 312 309 310 311 311 312 311 311 310
120 110 136 113 169 212 232 275 164 111 269 234 211 209 170 159 208 209 182 175 170 168 167 166 163 159 158 159 160 166 184 297 315 310 307 305 304 306 310 311 312 311 310 307
189 176 205 178 216 284 223 173 156 141 246 310 221 191 167 196 220 173 168 164 164 163 163 163 163 165 168 173 184 231 291 304 306 300 298 300 305 308 311 314 314 313 310 308
175 184 200 156 183 250 164 120 167 193 166 223 175 184 187 188 160 159 162 163 163 164 162 164 166 170 177 197 241 274 287 294 291 291 295 301 307 312 316 318 315 311 308 309
207 183 180 190 209 186 179 162 192 173 189 196 187 183 188 166 157 161 159 161 160 161 160 161 169 184 209 250 273 282 284 283 285 290 296 301 307 310 310 312 308 307 307 307
265 188 162 94 223 226 209 210 206 213 217 216 201 182 181 165 164 162 161 160 162 163 164 169 181 204 235 259 274 277 278 285 291 294 297 299 300 301 304 306 307 306 305 302
194 135 167 273 206 308 247 228 228 232 224 207 186 180 177 172 166 165 163 164 165 168 170 179 199 227 253 266 275 282 288 291 292 293 295 295 297 298 298 297 299 299 300 299
187 176 177 217 197 201 223 223 218 223 212 195 178 173 173 172 166 167 165 165 168 173 183 207 234 251 265 276 282 286 290 292 294 296 297 299 299 299 301 302 299 297 297 296